Location: Congrier
(47.8099°N, 1.1170°W)
Time: 06:59:27
(UTC+00:00)

Cosmos 1536 Rocket - Pass Details

Date: 28 January 2023
Orbit: 604 x 631 km, 82.5° (Epoch: 30 March)

Event Time Altitude Azimuth Distance (km) Brightness Sun altitude
Rises 18:13:35 0° 173° (S) 2,846 7.0 -12.7°
Reaches altitude 10° 18:15:50 10° 168° (SSE) 1,947 6.1 -13.1°
Maximum altitude 18:19:58 49° 94° (E) 789 3.7 -13.7°
Drops below altitude 10° 18:24:09 10° 20° (NNE) 1,966 5.8 -14.4°
Sets 18:26:26 0° 15° (NNE) 2,877 6.7 -14.8°
